www.pogodaiklimat.ru

Погода и климат >> Архив погоды >> Россия >> Свердловская область >> Ирбит


ПОГОДА в Ирбите

  • Прогноз погоды в Ирбите
  • Монитор погоды в Ирбите
  • Климат города

АРХИВ ПОГОДЫ в Ирбите

Время (UTC), дата Ветер
(напр.,м/с)
 
Видим.   Явления Облачность Т
(С)
Тd
(С)
f
(%)
Тe
(С)
Тes
(С)
Комфортность P
(гПа)
Po
(гПа)
Тmin
(С)
Tmax
(С)
R
(мм)
R24
(мм)
S
(см)
09 19.06 Ю 5
{11}
6000 м слабый дождь 10/10 200 м
[Frnb Ac As]
+14.2 +13.0 92 +12 +12 987.8 979.2
12 19.06 З 5-11
{12}
4800 м дождь 10/10 300 м
[Frnb Ns]
+14.1 +12.4 89 +12 +12 989.9 981.2
15 19.06 З 4-10
{11}
20 км слабый дождь 10/10 200 м
[Frnb]
+13.7 +11.9 89 +12 +12 990.9 982.2 +15.2 15
18 19.06 З 4
{10}
12 км слабый дождь 10/10 300 м
[Frnb]
+12.2 +10.7 91 +10 +10 991.9 983.2
21 19.06 З 4 6000 м 10/10 300 м
[Frnb Ns]
+11.5 +10.3 92 +9 +9 991.8 983.0
00 20.06 ЮЗ 4 10 км слабый дождь 10/10 300 м
[Frnb Ns]
+11.8 +10.3 91 +10 +10 991.7 983.0
03 20.06 З 3 14 км слабый дождь 10/10 200 м
[Frnb Ns]
+12.3 +11.2 93 +11 +11 992.5 983.8 +11.4 6
06 20.06 ЮЗ 3 50 км в посл. час дождь 10/10 300 м
[Frnb]
+13.9 +11.7 87 +13 +13 994.0 985.3
09 20.06 Ю 5-10
{11}
20 км {дождь} 10/4 600 м
[Cb calv Ac trans Cs]
+18.3 +13.5 74 +18 +21 994.1 985.5
12 20.06 Ю 3
{10}
50 км {дождь} 9/4 600 м
[Cb calv Ac cast Cc]
+21.8 +13.4 59 +25 +27 комфорт 993.9 985.4
15 20.06 Ю 4 50 км 9/4 600 м
[Cb calv Ac trans Cs]
+17.9 +11.8 67 +18 +18 994.1 985.6 +21.8 0.5
18 20.06 З 2 20 км 9/1 600 м
[Sc Ac trans Ci sp]
+14.0 +11.9 87 +13 +13 995.0 986.3
21 20.06 З 2 20 км 5/3 600 м
[Sc Ac As]
+13.6 +11.8 89 +13 +13 994.7 986.0
00 21.06 Ю 1 20 км местами туман поземный 3/0
[Ac trans]
+12.7 +11.7 94 +13 +13 994.4 985.7
03 21.06 Ю 1 50 км 6/0
[Ac cast Ci sp]
+17.7 +13.2 75 +19 +23 994.2 985.6 +12.1
06 21.06 Ю 2 50 км 8/3 600 м
[Cu med, cong Ac As Ci sp]
+22.6 +13.3 56 +26 +32 жарко 993.8 985.4
09 21.06 Ю 1 50 км в посл. час ливневой дождь 8/8 600 м
[Cb calv Ac trans]
+22.1 +13.2 57 +25 +28 комфорт 994.0 985.6
12 21.06 Ю 2 50 км гроза без осадков {ливн. осадки} 9/8 600 м
[Cb calv Ac trans]
+19.1 +15.1 78 +21 +22 комфорт 995.5 987.0
15 21.06 Ю 1 50 км {гроза} 6/4 600 м
[Sc Ac trans Ci sp]
+20.2 +15.7 75 +24 +24 комфорт 996.8 988.3 +23.8 0.0
18 21.06 Ю 2 20 км {гроза} 3/0
[Ac trans]
+14.9 +12.8 87 +15 +15 998.8 990.1
21 21.06 Ю 2 20 км 3/0
[Ac trans]
+13.7 +12.2 91 +13 +13 1000.0 991.3
00 22.06 Ю 2 20 км 4/0
[Ci sp]
+13.0 +11.4 90 +12 +12 1001.3 992.5
03 22.06 Ю 2 50 км 3/0
[Ci sp]
+17.3 +12.6 74 +18 +23 1002.3 993.6 +12.5
06 22.06 ЮЗ 3 50 км 5/3 600 м
[Cu hum Ci sp]
+22.6 +11.5 49 +25 +32 комфорт 1002.6 994.1
09 22.06 ЮЗ 5 50 км 4/3 600 м
[Cu med, cong Ci sp]
+24.1 +11.0 44 +25 +31 комфорт 1002.5 994.1
12 22.06 ЮЗ 4 50 км 6/4 600 м
[Cu med, cong Ac trans Ci sp]
+24.8 +11.9 44 +26 +29 жарко 1002.0 993.6
15 22.06 Ю 3 50 км 6/3 600 м
[Cb calv Ac trans Ci fib]
+23.6 +12.9 51 +26 +26 жарко 1001.9 993.4 +25.0
18 22.06 Ю 3 50 км 8/5 600 м
[Cb calv Ac trans Ci sp]
+20.3 +13.1 63 +23 +23 комфорт 1002.3 993.8
21 22.06 ЮЗ 2 50 км 8/8 600 м
[Cb calv]
+18.4 +12.8 70 +19 +19 1002.4 993.8
00 23.06 Ю 2 20 км слабый ливневой дождь 9/9 600 м
[Cb calv]
+16.8 +14.1 84 +17 +17 1002.2 993.5
03 23.06 штиль 0 50 км {ливн. осадки} 9/8 600 м
[Cb calv Ac trans Ci sp]
+19.6 +15.7 78 +21 +23 комфорт 1002.8 994.2 +16.7 2
06 23.06 З 2 50 км {ливн. осадки} 9/8 600 м
[Cb calv Ac trans Ci sp]
+21.2 +13.6 62 +24 +26 комфорт 1003.1 994.6
09 23.06 СЗ 2 50 км гроза, ливневой дождь 10/10 600 м
[Cb calv]
+18.2 +14.7 80 +19 +19 1003.9 995.3
12 23.06 СЗ 2 50 км {гроза, ливн. осадки} 9/9 600 м
[Cb calv]
+19.5 +13.6 69 +22 +22 комфорт 1003.9 995.3
15 23.06 З 1 50 км 9/8 600 м
[Cb calv Ac trans Ci sp]
+19.2 +12.1 63 +21 +22 комфорт 1003.9 995.3 +22.2
18 23.06 З 1 50 км 4/4 1000 м
[Sc]
+15.8 +13.3 85 +16 +16 1004.7 996.0
21 23.06 ЮЗ 1 6000 м дымка 3/1 1000 м
[Sc Ci fib]
+12.6 +11.7 94 +13 +13 1005.1 996.3
00 24.06 ЮЗ 1 50 км {туман} 3/0
[Ci fib]
+10.7 +9.8 94 +10 +11 1005.6 996.7
03 24.06 З 1 50 км 1/0
[Ci fib]
+16.2 +10.9 71 +17 +23 1005.9 997.2 +10.6
06 24.06 З 1 50 км 4/3 600 м
[Cu hum Ci fib]
+21.0 +8.4 44 +23 +34 комфорт 1005.5 996.9
09 24.06 ЮВ 2 50 км 5/5 600 м
[Cu med, cong]
+22.2 +6.4 36 +23 +30 комфорт 1004.6 996.0
12 24.06 З 2 50 км 3/3 600 м
[Cu med, cong]
+22.7 +6.6 35 +23 +28 комфорт 1003.9 995.3
15 24.06 З 1
{11}
50 км в посл. час ливневой дождь 9/8 600 м
[Cb calv Ac cast Ci fib]
+15.4 +11.2 76 +16 +16 1005.3 996.6 +23.1 0.3
18 24.06 З 2 20 км местами туман поземный {ливн. осадки} 5/1 600 м
[Cb calv Ac trans Ci fib]
+12.3 +10.2 87 +11 +11 1005.4 996.6
21 24.06 З 1 6000 м дымка 3/0 1000 м
[Ci fib]
+10.7 +9.6 93 +10 +10 1005.7 996.8
00 25.06 Ю 1 20 км 8/5 1000 м
[Sc Ac trans Ci sp]
+11.7 +9.8 88 +12 +12 1005.6 996.7
03 25.06 С 2 50 км 9/3 600 м
[Sc Ac trans Ci sp]
+15.6 +11.7 78 +16 +18 1004.8 996.1 +9.5
06 25.06 СВ 4 50 км 8/3 600 м
[Cb calv Ac trans Ci sp]
+20.3 +11.0 55 +22 +26 комфорт 1003.0 994.5
09 25.06 ЮВ 4 50 км 10/6 600 м
[Cb calv As op]
+21.3 +12.3 56 +23 +24 комфорт 1001.5 992.9
12 25.06 ЮВ 6-11
{11}
50 км {ливн. осадки} 10/8 600 м
[Cb calv As op]
+20.6 +11.0 54 +22 +22 комфорт 999.3 990.8
15 25.06 ЮВ 6
{14}
50 км {ливн. осадки} 9/8 600 м
[Cb calv Ac trans Ci sp]
+18.3 +11.5 65 +18 +18 996.9 988.3 +21.5 0.0
18 25.06 Ю 3
{11}
20 км гроза, ливневой дождь 10/10 600 м
[Cb calv]
+15.6 +13.8 89 +15 +15 996.5 987.8
21 25.06 Ю 3 30 км {гроза, ливн. осадки} 6/6 600 м
[Cb calv Ac trans]
+14.1 +12.5 90 +13 +13 996.4 987.7
00 26.06 Ю 2 50 км {гроза, ливн. осадки} 9/9 600 м
[Cb calv]
+12.8 +10.9 88 +12 +12 997.8 988.2
03 26.06 ЮВ 4 50 км {ливн. осадки} 10/10 600 м
[Cb calv]
+13.8 +11.8 88 +12 +12 997.8 989.0 +12.2 0.8
06 26.06 З 4
{10}
50 км {ливн. осадки, дождь} 10/10 600 м
[Cb calv]
+14.8 +9.9 72 +14 +14 999.8 991.1

 

Местоположение метеостанции Ирбит (Свердловская область, Россия): широта 57.62 долгота 62.97 высота над уровнем моря 74 м.

В архиве по умолчанию представлена погода в Ирбите за последнюю неделю. Архивные данные за месяц целиком и за предыдущие месяцы, начиная с января 2011 года, Вы можете получить, выбрав интересующий диапазон дат из раскрывающегося списка и нажав кнопку "Ввод!".

Внимание! Время в таблицах - всемирное. Для получения местного времени необходимо прибавить поправку, которая в Ирбите равна 5 ч.

Смотрите также архив погоды в соседних городах и на ближайших метеорологических станциях:

Погода в Туринске (Свердловская область, Россия) (64 км)
Погода в Артемовском (Свердловская область, Россия) (69 км)
Погода в Алапаевске (Свердловская область, Россия) (80 км)
Погода в Камышлове (Свердловская область, Россия) (87 км)
Погода в Тугулыме (Свердловская область, Россия) (119 км)
Погода в Таборах (Свердловская область, Россия) (135 км)
Погода в Тавде (Свердловская область, Россия) (145 км)
Погода в Каменск-Уральском (Свердловская область, Россия) (148 км)
Погода в Далматово (Курганская область, Россия) (150 км)
Погода в Верхнем Дуброво (Свердловская область, Россия) (151 км)

Пояснения к столбцам:

Ветер - указаны скорость ветра в м/с - средняя за 10 мин, порывы в срок и между сроками (в фигурных скобках) и направление, откуда дует ветер: С - северный, СВ - северо-восточный, В - восточный, ЮВ - юго-восточный, Ю - южный, ЮЗ - юго-западный, З - западный, СЗ - северо-западный.
Видимость - горизонтальная дальность видимости в метрах или километрах. При видимости от 1 до 10 км при отсутствии осадков обычно наблюдается дымка, при ухудшении видимости до 1 км и менее - туман. В сухую погоду видимость может ухудшаться дымом, пылью или мглою.
Явления - указаны атмосферные явления, наблюдавшиеся в срок или в последний час перед сроком; фигурными скобками обозначены явления, наблюдавшиеся между сроками (за 1-3 часа до срока); квадратными скобками обозначены град или гололедные отложения с указанием их диаметра в мм.
Облачность - указаны через наклонную черту общая и нижняя облачность в баллах и высота нижней границы облаков в метрах; квадратными скобками обозначены формы облаков: Ci - перистые, Cs - перисто-слоистые, Cc - перисто-кучевые, Ac - высококучевые, As - высокослоистые, Sc - слоисто-кучевые, Ns - слоисто-дождевые, Cu - кучевые, Cb - кучево-дождевые. Подробнее классификацию облаков см. в Атласе облаков (PDF).
T - Температура воздуха - температура, измеренная на высоте 2 м над землей.
Td - Температура точки росы - температура, при понижении до которой содержащийся в воздухе водяной пар достигнет насыщения.
f - Относительная влажность воздуха - влажноcть воздуха, измеренная на высоте 2 м над землей.
Te - Эффективная температура - температура, которую ощущает одетый по сезону человек в тени. Характеристика душности погоды. При расчете учитывается влияние влажности воздуха и скорости ветра на теплоощущения человека.
Tes - Эффективная температура на солнце - температура, которую ощущает человек, с поправкой на солнечный нагрев. Характеристика знойности погоды. Зависит от высоты солнца над горизонтом, облачности и скорости ветра. Ночью, в пасмурную погоду, а также при ветре 12 м/с и более поправка равна нулю.
P - Атмосферное давление - приведенное к уровню моря атмосферное давление.
Po - Атмосферное давление - измеренное на уровне метеостанции атмосферное давление.
Tmin - Минимальная температура - минимум температуры воздуха на высоте 2 м над землей.
Tmax - Максимальная температура - максимум температуры воздуха на высоте 2 м над землей.
R - Количество осадков - Количество выпавших осадков за период времени, мм. При наведении курсора мыши на число - период времени, за который выпало указанное количество осадков.
R24 - Количество осадков - Количество выпавших осадков за 24 часа, мм.
S - Снежный покров - Высота снежного покрова, см. При наведении курсора мыши на число - состояние снежного покрова и степень покрытия местности в баллах.